Lincolnton, NC

1:06 PM EDT on August 17, 2019 (GMT -0400)
Lincolnton-Lincoln County Regional

Weather History for KIPJ - July, 2019

Change the Weather History Date:

Sunday, July 21, 2019

  Actual Average (KCLT) Record (KCLT)
Temperature  
Mean Temperature 81 °F -  
Max Temperature 92 °F 90 °F 103 °F (1986)
Min Temperature 70 °F 70 °F 57 °F (1890)
Cooling Degree Days 16    
Growing Degree Days 31 (Base 50)    
Moisture  
Dew Point 68 °F    
Average Humidity 66    
Maximum Humidity 100    
Minimum Humidity 37    
Precipitation  
Precipitation 0.00 in - - ()
Sea Level Pressure  
Sea Level Pressure 30.02 in    
Wind  
Wind Speed 5 mph (SW)    
Max Wind Speed 16 mph    
Max Gust Speed 22 mph    
Visibility 10 miles    
Events      
Averages and records for this station are not official NWS values.
T = Trace of Precipitation, MM = Missing Value Source: NWS Daily Summary

Daily Weather History Graph

Daily Weather History Graph

Search for Another Location

Airport or City:

Astronomy

Jul. 21, 2019 Rise Set
Actual Time 6:24 AM EDT 8:36 PM EDT
Civil Twilight 5:55 AM EDT 9:05 PM EDT
Nautical Twilight 5:20 AM EDT 9:40 PM EDT
Astronomical Twilight 4:42 AM EDT 10:19 PM EDT
Moon 11:39 PM EDT (7/21) 10:36 AM EDT (7/21)
Length of Visible Light 15h 09m
Length of Day
14h 12m
Waning Gibbous, 80% of the Moon is Illuminated
Jul 21
Waning Gibbous
Jul 24
Last Quarter
Jul 31
New
Aug 7
First Quarter
Aug 15
Full

Hourly Weather History & Observations

Time (EDT) Temp. Heat Index Dew Point Humidity Pressure Visibility Wind Dir Wind Speed Gust Speed Precip Events Conditions
12:10 AM 78.3 °F - 72.0 °F 81% 30.04 in 10.0 mi Calm Calm - N/A   Clear
12:30 AM 77.4 °F - 72.5 °F 85% 30.05 in 10.0 mi SW 3.5 mph - N/A   Clear
12:50 AM 77.0 °F - 72.3 °F 85% 30.05 in 10.0 mi SW 3.5 mph - N/A   Clear
1:10 AM 76.8 °F - 72.5 °F 86% 30.06 in 10.0 mi SW 3.5 mph - N/A   Clear
1:30 AM 77.4 °F - 72.1 °F 84% 30.05 in 10.0 mi SW 5.8 mph - N/A   Clear
1:50 AM 77.2 °F - 72.0 °F 84% 30.05 in 10.0 mi SW 5.8 mph - N/A   Clear
2:10 AM 77.0 °F - 71.8 °F 84% 30.03 in 10.0 mi SW 5.8 mph - N/A   Clear
2:30 AM 76.6 °F - 71.8 °F 85% 30.02 in 10.0 mi SW 5.8 mph - N/A   Clear
2:50 AM 75.9 °F - 71.6 °F 86% 30.02 in 10.0 mi Calm Calm - N/A   Clear
3:10 AM 73.9 °F - 71.2 °F 91% 30.02 in 10.0 mi Calm Calm - N/A   Clear
3:30 AM 73.2 °F - 71.8 °F 95% 30.02 in 10.0 mi Calm Calm - N/A   Clear
3:50 AM 72.7 °F - 72.1 °F 98% 30.02 in 10.0 mi Calm Calm - N/A   Clear
4:30 AM 72.5 °F - 72.0 °F 98% 30.02 in 10.0 mi Calm Calm - N/A   Clear
4:50 AM 71.6 °F - 71.6 °F 100% 30.02 in 10.0 mi Calm Calm - N/A   Clear
5:10 AM 71.6 °F - 71.6 °F 100% 30.02 in 10.0 mi Calm Calm - N/A   Clear
5:30 AM 71.4 °F - 71.4 °F 100% 30.01 in 10.0 mi Calm Calm - N/A   Clear
5:50 AM 71.6 °F - 71.6 °F 100% 30.02 in 10.0 mi Calm Calm - N/A   Clear
6:10 AM 71.2 °F - 71.2 °F 100% 30.02 in 7.0 mi SW 3.5 mph - N/A   Clear
6:30 AM 71.1 °F - 71.1 °F 100% 30.02 in 7.0 mi Calm Calm - N/A   Clear
6:50 AM 70.2 °F - 70.2 °F 100% 30.02 in 4.0 mi Calm Calm - N/A   Clear
7:10 AM 71.4 °F - 71.4 °F 100% 30.02 in 7.0 mi SW 4.6 mph - N/A   Clear
7:30 AM 72.5 °F - 72.5 °F 100% 30.02 in 7.0 mi SW 3.5 mph - N/A   Clear
7:50 AM 73.9 °F - 72.9 °F 96% 30.02 in 10.0 mi SW 4.6 mph - N/A   Clear
8:10 AM 75.2 °F - 72.9 °F 92% 30.03 in 10.0 mi SW 6.9 mph - N/A   Clear
8:30 AM 77.0 °F - 72.5 °F 86% 30.04 in 10.0 mi WSW 6.9 mph - N/A   Clear
8:50 AM 78.8 °F - 71.6 °F 78% 30.05 in 10.0 mi WSW 8.1 mph - N/A   Clear
9:10 AM 79.7 °F - 71.2 °F 75% 30.05 in 10.0 mi WSW 9.2 mph - N/A   Clear
9:30 AM 81.3 °F 85.2 °F 70.9 °F 70% 30.06 in 10.0 mi WSW 8.1 mph - N/A   Clear
9:50 AM 82.2 °F 86.4 °F 70.9 °F 68% 30.05 in 10.0 mi SSW 4.6 mph - N/A   Clear
10:10 AM 83.3 °F 86.9 °F 69.1 °F 62% 30.05 in 10.0 mi SW 6.9 mph 16.1 mph N/A   Clear
10:30 AM 84.4 °F 87.6 °F 68.2 °F 58% 30.05 in 10.0 mi SW 10.4 mph 18.4 mph N/A   Clear
10:50 AM 85.5 °F 88.2 °F 66.9 °F 54% 30.05 in 10.0 mi WSW 9.2 mph - N/A   Clear
11:10 AM 86.0 °F 88.5 °F 66.6 °F 52% 30.05 in 10.0 mi SW 9.2 mph 17.3 mph N/A   Clear
11:30 AM 87.1 °F 89.5 °F 66.2 °F 50% 30.05 in 10.0 mi SW 11.5 mph 18.4 mph N/A   Clear
11:50 AM 87.4 °F 89.5 °F 65.3 °F 48% 30.05 in 10.0 mi SSW 11.5 mph 18.4 mph N/A   Clear
12:10 PM 88.2 °F 89.3 °F 63.9 °F 44% 30.05 in 10.0 mi WSW 13.8 mph 20.7 mph N/A   Clear
12:30 PM 88.9 °F 90.0 °F 63.7 °F 43% 30.05 in 10.0 mi WSW 13.8 mph 18.4 mph N/A   Clear
12:50 PM 89.4 °F 90.2 °F 63.0 °F 41% 30.05 in 10.0 mi SW 12.7 mph 19.6 mph N/A   Clear
1:10 PM 89.6 °F 90.4 °F 63.3 °F 41% 30.04 in 10.0 mi WSW 16.1 mph 21.9 mph N/A   Clear
1:30 PM 90.3 °F 91.5 °F 63.5 °F 41% 30.04 in 10.0 mi SW 10.4 mph - N/A   Clear
1:50 PM 90.9 °F 91.6 °F 62.6 °F 39% 30.03 in 10.0 mi West 13.8 mph 19.6 mph N/A   Clear
2:10 PM 91.0 °F 92.2 °F 63.7 °F 40% 30.03 in 10.0 mi WSW 12.7 mph 19.6 mph N/A   Clear
2:30 PM 91.2 °F 93.3 °F 65.5 °F 42% 30.02 in 10.0 mi WSW 12.7 mph 16.1 mph N/A   Clear
2:50 PM 91.2 °F 93.3 °F 65.1 °F 42% 30.02 in 10.0 mi WSW 11.5 mph 17.3 mph N/A   Clear
3:10 PM 92.1 °F 94.4 °F 65.3 °F 41% 30.01 in 10.0 mi SSW 8.1 mph - N/A   Scattered Clouds
3:30 PM 92.1 °F 94.4 °F 65.3 °F 41% 30.01 in 10.0 mi SSW 6.9 mph - N/A   Scattered Clouds
3:50 PM 91.6 °F 93.1 °F 64.4 °F 40% 30.00 in 10.0 mi SSW 5.8 mph 19.6 mph N/A   Scattered Clouds
4:10 PM 92.5 °F 94.1 °F 64.4 °F 39% 30.00 in 10.0 mi SW 9.2 mph - N/A   Scattered Clouds
4:30 PM 92.1 °F 94.0 °F 64.9 °F 40% 29.98 in 10.0 mi WSW 13.8 mph 19.6 mph N/A   Clear
4:50 PM 92.3 °F 93.8 °F 64.2 °F 39% 29.99 in 10.0 mi SW 5.8 mph 17.3 mph N/A   Clear
5:10 PM 92.3 °F 93.1 °F 62.6 °F 37% 30.00 in 10.0 mi SW 10.4 mph - N/A   Clear
5:30 PM 92.3 °F 93.8 °F 64.4 °F 39% 30.00 in 10.0 mi WSW 10.4 mph - N/A   Clear
5:50 PM 91.9 °F 93.7 °F 64.2 °F 40% 29.98 in 10.0 mi SW 9.2 mph 17.3 mph N/A   Clear
6:10 PM 91.4 °F 93.2 °F 64.4 °F 41% 29.98 in 10.0 mi WSW 10.4 mph - N/A   Clear
6:30 PM 91.4 °F 93.2 °F 64.9 °F 41% 29.97 in 10.0 mi WSW 8.1 mph - N/A   Clear
6:50 PM 90.1 °F 91.6 °F 64.2 °F 42% 29.97 in 10.0 mi SW 9.2 mph - N/A   Clear
7:10 PM 90.0 °F 92.0 °F 65.1 °F 44% 29.96 in 10.0 mi SSW 4.6 mph - N/A   Clear
7:30 PM 88.2 °F 90.3 °F 65.7 °F 47% 29.97 in 10.0 mi SW 6.9 mph - N/A   Clear
7:50 PM 87.3 °F 89.5 °F 65.8 °F 49% 29.98 in 10.0 mi SW 4.6 mph - N/A   Clear
8:30 PM 85.1 °F 87.7 °F 66.6 °F 54% 29.98 in 10.0 mi SSW 4.6 mph - N/A   Clear
8:50 PM 83.8 °F 86.5 °F 67.1 °F 57% 29.98 in 10.0 mi SW 3.5 mph - N/A   Clear
9:10 PM 82.4 °F 85.0 °F 67.3 °F 60% 29.99 in 10.0 mi SW 3.5 mph - N/A   Scattered Clouds
9:30 PM 82.2 °F 84.7 °F 67.3 °F 60% 30.00 in 10.0 mi SSW 4.6 mph - N/A   Scattered Clouds
9:50 PM 80.8 °F 83.3 °F 67.6 °F 64% 30.00 in 10.0 mi Calm Calm - N/A   Clear
10:10 PM 81.3 °F 84.0 °F 67.6 °F 63% 30.00 in 10.0 mi SSW 3.5 mph - N/A   Scattered Clouds
10:30 PM 80.1 °F 82.7 °F 68.4 °F 67% 30.01 in 10.0 mi SW 3.5 mph - N/A   Mostly Cloudy
10:50 PM 79.3 °F - 68.5 °F 69% 30.01 in 10.0 mi SW 4.6 mph - N/A   Scattered Clouds
11:10 PM 79.3 °F - 68.5 °F 69% 30.02 in 10.0 mi SW 3.5 mph - N/A   Clear
11:30 PM 79.0 °F - 68.4 °F 70% 30.01 in 10.0 mi SW 3.5 mph - N/A   Clear
11:50 PM 77.5 °F - 68.9 °F 75% 30.02 in 10.0 mi Calm Calm - N/A   Clear